{"data":{"norad_id":67156,"epoch":"2026-05-25T01:51:02.709216Z","epoch_age_seconds":64329,"freshness":"FRESH","line1":"1 67156U 25301Z   26145.07711469  .00001130  00000+0  17723-3 0  9996","line2":"2 67156  51.9004  80.3734 0001558 152.9077 207.1967 14.79930823 25332","mean_motion":14.79930823,"eccentricity":0.0001558,"inclination_deg":51.9004,"raan_deg":80.3734,"arg_perigee_deg":152.9077,"mean_anomaly_deg":207.1967,"bstar":0.00017723,"rev_number":2533,"period_min":97.301845303887,"perigee_km":628.45070496663,"apogee_km":630.63429789928,"semimajor_km":7007.679501433,"source":"CELESTRAK","updated_at":"2026-05-25T13:38:06.779513Z"}}